Weather History for Tri-Cities, TN

Change the Weather History Date:

Saturday, August 2, 2014

  Actual Average Record
Temperature  
Mean Temperature 72 °F 74 °F  
Max Temperature 84 °F 85 °F 96 °F (2006)
Min Temperature 60 °F 64 °F 55 °F (1997)
Degree Days  
Heating Degree Days 0 0  
Month to date heating degree days 0 0  
Since 1 June heating degree days 0 11  
Since 1 July heating degree days 0 0  
Cooling Degree Days 7 10  
Month to date cooling degree days 14 20  
Year to date cooling degree days 702 598  
Since 1 June cooling degree days 568 525  
Growing Degree Days 21 (Base 50)    
Moisture  
Dew Point 59 °F    
Average Humidity 67    
Maximum Humidity 90    
Minimum Humidity 43    
Precipitation  
Precipitation T in 0.13 in 1.53 in (2003)
Month to date precipitation T 0.26  
Year to date precipitation 20.83 26.24  
Snow  
Snow 0.00 in 0.00 in - ()
Month to date snowfall 0.0 0.0  
Since 1 June snowfall 0.0 0.0  
Since 1 July snowfall 0.0 0.0  
Snow Depth 0.00 in    
Sea Level Pressure  
Sea Level Pressure 30.05 in    
Wind  
Wind Speed 3 mph (WNW)    
Max Wind Speed 23 mph    
Max Gust Speed 30 mph    
Visibility 10 miles    
Events Rain    
T = Trace of Precipitation, MM = Missing Value Source: NWS Daily Summary

Daily Weather History Graph

Daily Weather History Graph

Search for Another Location

Airport:

Trip Planner

Search our weather history database for the weather conditions in past years. The results will help you decide how hot, cold, wet, or windy it might be!

Date:

Astronomy

Aug. 02, 2014 Rise Set
Actual Time 6:36 AM EDT 8:34 PM EDT
Civil Twilight 6:08 AM EDT 9:02 PM EDT
Nautical Twilight 5:33 AM EDT 9:37 PM EDT
Astronomical Twilight 4:56 AM EDT 10:14 PM EDT
Moon 12:45 PM EDT (8/2) No Moon Set
Length of Visible Light 14h 54m
Length of Day
13h 57m
Waxing Crescent, 36% of the Moon is Illuminated
Aug 2
Waxing Crescent
Aug 3
First Quarter
Aug 10
Full
Aug 17
Last Quarter
Aug 25
New

Hourly Weather History & Observations

Time (EDT) Temp. Heat Index Dew Point Humidity Pressure Visibility Wind Dir Wind Speed Gust Speed Precip Events Conditions
12:53 AM 63.0 °F - 57.0 °F 81% 30.07 in 10.0 mi Calm Calm - N/A   Scattered Clouds
1:53 AM 64.0 °F - 57.0 °F 78% 30.06 in 10.0 mi Calm Calm - N/A   Scattered Clouds
2:53 AM 62.1 °F - 57.0 °F 84% 30.05 in 10.0 mi Calm Calm - N/A   Mostly Cloudy
3:53 AM 62.6 °F - 57.2 °F 82% 30.11 in 10.0 mi Calm Calm - N/A   Mostly Cloudy
4:53 AM 60.1 °F - 57.0 °F 90% 30.05 in 9.0 mi Calm Calm - N/A   Mostly Cloudy
5:53 AM 61.0 °F - 57.0 °F 87% 30.06 in 10.0 mi Calm Calm - N/A   Mostly Cloudy
6:53 AM 62.1 °F - 59.0 °F 90% 30.07 in 9.0 mi Calm Calm - 0.00 in   Mostly Cloudy
7:53 AM 64.0 °F - 59.0 °F 84% 30.07 in 10.0 mi Calm Calm - N/A   Mostly Cloudy
8:53 AM 66.0 °F - 60.1 °F 81% 30.09 in 10.0 mi Calm Calm - N/A   Mostly Cloudy
9:53 AM 69.1 °F - 61.0 °F 75% 30.09 in 10.0 mi Calm Calm - 0.00 in Rain Light Rain
10:53 AM 73.9 °F - 61.0 °F 64% 30.09 in 10.0 mi Calm Calm - 0.00 in   Mostly Cloudy
11:53 AM 77.0 °F - 60.1 °F 56% 30.09 in 10.0 mi WNW 4.6 mph - N/A   Mostly Cloudy
12:53 PM 78.1 °F - 60.1 °F 54% 30.08 in 10.0 mi Variable 3.5 mph - N/A   Mostly Cloudy
1:53 PM 79.0 °F - 62.1 °F 56% 30.06 in 10.0 mi NNW 3.5 mph - N/A   Mostly Cloudy
2:53 PM 81.0 °F 81.7 °F 61.0 °F 50% 30.03 in 10.0 mi Variable 3.5 mph - N/A   Scattered Clouds
3:53 PM 82.9 °F 83.3 °F 61.0 °F 47% 30.02 in 10.0 mi SSE 4.6 mph - N/A   Mostly Cloudy
4:53 PM 82.9 °F 82.6 °F 57.9 °F 42% 30.00 in 10.0 mi South 5.8 mph - N/A   Scattered Clouds
5:53 PM 82.9 °F 82.8 °F 59.0 °F 44% 29.98 in 10.0 mi South 3.5 mph - N/A   Mostly Cloudy
6:53 PM 79.0 °F - 59.0 °F 50% 30.01 in 10.0 mi NW 19.6 mph 29.9 mph N/A   Mostly Cloudy
7:07 PM 77.0 °F - 57.2 °F 50% 30.07 in 10.0 mi NW 16.1 mph - N/A   Mostly Cloudy
7:53 PM 73.9 °F - 55.9 °F 53% 30.02 in 10.0 mi NW 11.5 mph - N/A   Mostly Cloudy
8:53 PM 72.0 °F - 55.0 °F 55% 30.03 in 10.0 mi East 5.8 mph - N/A   Mostly Cloudy
9:53 PM 70.0 °F - 57.9 °F 65% 30.05 in 10.0 mi Calm Calm - N/A   Mostly Cloudy
10:53 PM 66.0 °F - 59.0 °F 78% 30.06 in 10.0 mi North 3.5 mph - N/A   Mostly Cloudy
11:53 PM 64.9 °F - 60.1 °F 84% 30.06 in 10.0 mi Calm Calm - N/A   Mostly Cloudy